Shreveport, LA

1:08 PM CDT on March 29, 2017 (GMT -0500)
Shreveport Regional

Weather History for KSHV - March, 2013

Change the Weather History Date:

Friday, March 1, 2013

  Actual Average Record
Temperature  
Mean Temperature 44 °F 54 °F  
Max Temperature 56 °F 65 °F 85 °F (1972)
Min Temperature 31 °F 43 °F 22 °F (1890)
Degree Days  
Heating Degree Days 21 11  
Month to date heating degree days 21 11  
Since 1 July heating degree days 1635 1893  
Cooling Degree Days 0 0  
Month to date cooling degree days 0 0  
Year to date cooling degree days 8 10  
Moisture  
Dew Point 29 °F    
Average Humidity 60    
Maximum Humidity 85    
Minimum Humidity 35    
Precipitation  
Precipitation T in 0.15 in 1.79 in (1934)
Month to date precipitation T 0.15  
Year to date precipitation 7.44 9.10  
Snow  
Snow 0.00 in - - ()
Month to date snowfall 0.0  
Since 1 July snowfall 0.1  
Snow Depth 0.00 in    
Sea Level Pressure  
Sea Level Pressure 30.19 in    
Wind  
Wind Speed 8 mph (NW)    
Max Wind Speed 21 mph    
Max Gust Speed 31 mph    
Visibility 10 miles    
Events      
T = Trace of Precipitation, MM = Missing Value Source: NWS Daily Summary

Daily Weather History Graph

Daily Weather History Graph

Search for Another Location

Airport or City:

Trip Planner

Search our weather history database for the weather conditions in past years. The results will help you decide how hot, cold, wet, or windy it might be!

Date:

Astronomy

Mar. 01, 2013 Rise Set
Actual Time 6:42 AM CST 6:13 PM CST
Civil Twilight 6:17 AM CST 6:37 PM CST
Nautical Twilight 5:49 AM CST 7:06 PM CST
Astronomical Twilight 5:21 AM CST 7:34 PM CST
Moon 10:28 PM CST (3/1) 8:46 AM CST (3/1)
Length of Visible Light 12h 19m
Length of Day
11h 30m
Waning Gibbous, 83% of the Moon is Illuminated
Mar 1
Waning Gibbous
Mar 4
Last Quarter
Mar 11
New
Mar 19
First Quarter
Mar 27
Full

Hourly Weather History & Observations

Time (CST) Temp. Windchill Dew Point Humidity Pressure Visibility Wind Dir Wind Speed Gust Speed Precip Events Conditions
12:56 AM 39.9 °F 33.9 °F 30.0 °F 68% 30.17 in 10.0 mi NW 9.2 mph - N/A   Clear
1:56 AM 37.9 °F 32.1 °F 30.0 °F 73% 30.17 in 10.0 mi NW 8.1 mph - N/A   Clear
2:56 AM 36.0 °F 31.1 °F 28.9 °F 76% 30.15 in 10.0 mi WNW 5.8 mph - N/A   Clear
3:56 AM 39.0 °F 34.8 °F 30.0 °F 70% 30.16 in 10.0 mi North 5.8 mph - N/A   Clear
4:56 AM 37.0 °F 33.3 °F 30.0 °F 76% 30.18 in 10.0 mi North 4.6 mph - N/A   Clear
5:56 AM 32.0 °F 28.7 °F 28.0 °F 85% 30.19 in 10.0 mi WNW 3.5 mph - N/A   Clear
6:56 AM 33.1 °F 26.9 °F 28.9 °F 85% 30.21 in 10.0 mi WNW 6.9 mph - N/A   Clear
7:56 AM 36.0 °F 32.1 °F 30.9 °F 82% 30.23 in 7.0 mi WNW 4.6 mph - N/A   Clear
8:56 AM 41.0 °F 36.4 °F 32.0 °F 70% 30.24 in 10.0 mi NW 6.9 mph - N/A   Scattered Clouds
9:56 AM 44.1 °F 39.5 °F 30.0 °F 58% 30.24 in 10.0 mi North 8.1 mph - N/A   Scattered Clouds
10:04 AM 44.6 °F 42.2 °F 30.2 °F 57% 30.24 in 10.0 mi Variable 4.6 mph - N/A   Mostly Cloudy
10:32 AM 44.6 °F 42.2 °F 30.2 °F 57% 30.24 in 10.0 mi NNW 4.6 mph - N/A   Mostly Cloudy
10:39 AM 44.6 °F 40.2 °F 30.2 °F 57% 30.24 in 10.0 mi NNW 8.1 mph - N/A   Mostly Cloudy
10:56 AM 46.9 °F - 30.0 °F 52% 30.24 in 10.0 mi NNW 4.6 mph - N/A   Scattered Clouds
11:56 AM 48.9 °F - 28.0 °F 44% 30.22 in 10.0 mi NNW 5.8 mph - N/A   Clear
12:56 PM 51.1 °F - 28.9 °F 43% 30.19 in 10.0 mi WNW 5.8 mph 16.1 mph N/A   Partly Cloudy
1:56 PM 53.1 °F - 27.0 °F 37% 30.16 in 10.0 mi NW 11.5 mph 23.0 mph 0.00 in   Scattered Clouds
2:56 PM 54.0 °F - 26.1 °F 34% 30.14 in 10.0 mi NNW 15.0 mph 21.9 mph N/A   Mostly Cloudy
3:56 PM 53.1 °F - 26.1 °F 35% 30.14 in 10.0 mi NW 16.1 mph - N/A   Overcast
4:56 PM 52.0 °F - 27.0 °F 38% 30.15 in 10.0 mi NNW 9.2 mph - N/A   Mostly Cloudy
5:56 PM 51.1 °F - 27.0 °F 39% 30.16 in 10.0 mi NW 10.4 mph - N/A   Mostly Cloudy
6:56 PM 48.9 °F - 28.0 °F 44% 30.17 in 10.0 mi WNW 8.1 mph - N/A   Scattered Clouds
7:56 PM 46.0 °F 42.5 °F 28.9 °F 51% 30.18 in 10.0 mi WNW 6.9 mph - N/A   Partly Cloudy
8:56 PM 45.0 °F 40.6 °F 28.9 °F 53% 30.18 in 10.0 mi WNW 8.1 mph - N/A   Partly Cloudy
9:56 PM 42.1 °F 38.4 °F 28.9 °F 60% 30.19 in 10.0 mi NW 5.8 mph - N/A   Partly Cloudy
10:56 PM 43.0 °F 36.4 °F 28.0 °F 56% 30.20 in 10.0 mi North 12.7 mph - N/A   Partly Cloudy
11:56 PM 41.0 °F 35.2 °F 27.0 °F 57% 30.22 in 10.0 mi NNE 9.2 mph - N/A   Mostly Cloudy